Location: Shannon
(40.5500°S, 175.4167°E)
Time: 11:15:33
(UTC+00:00)

SeaSat 1 - Pass Details

Date: 17 November 2025
Orbit: 737 x 740 km, 108.0° (Epoch: 09 December)

Event Time Altitude Azimuth Distance (km) Brightness Sun altitude
Exits shadow 13:05:00 19° 246° (WSW) 1,713 4.3 -28.6°
Drops below altitude 10° 13:06:53 10° 229° (SW) 2,274 5.2 -28.5°
Sets 13:09:28 0° 217° (SW) 3,205 6.2 -28.4°
